EW4819 Weather Reports


Display with metric or nautical units.
time (UTC)temp
F
wind
direction
speed
MPH
gust
MPH
rain 1hr
in
rain 24hr
in
rain mn
in
humidity
%
barometer
mb
20260502130501 67 112 3.0 7.0 0.00 0.00 0.00 57 1013.0
20260502123503 67 149 2.0 8.0 0.00 0.00 0.00 57 1013.3
20260502123001 67 132 2.0 8.0 0.00 0.00 0.00 56 1013.5
20260502122501 67 144 2.0 8.0 0.00 0.00 0.00 55 1013.6
20260502122022 67 161 2.0 9.0 0.00 0.00 0.00 58 1013.6
20260502121502 67 154 3.0 9.0 0.00 0.00 0.00 56 1013.8
20260502121023 68 138 3.0 7.0 0.00 0.00 0.00 56 1013.9
20260502120502 68 115 3.0 7.0 0.00 0.00 0.00 60 1013.9
20260502115523 67 146 1.0 5.0 0.00 0.00 0.00 60 1014.0
20260502115002 67 143 2.0 6.0 0.00 0.00 0.00 57 1014.1
20260502114502 67 137 2.0 6.0 0.00 0.00 0.00 56 1014.1
20260502114004 66 101 2.0 9.0 0.00 0.00 0.00 58 1014.2
20260502113502 66 126 2.0 9.0 0.00 0.00 0.00 57 1014.3
20260502113002 67 133 2.0 7.0 0.00 0.00 0.00 59 1014.3
20260502112502 66 92 2.0 6.0 0.00 0.00 0.00 61 1014.3
20260502112023 65 59 3.0 8.0 0.00 0.00 0.00 58 1014.3
20260502111502 65 56 3.0 8.0 0.00 0.00 0.00 64 1014.5
20260502111001 65 75 3.0 7.0 0.00 0.00 0.00 64 1014.6
20260502110523 65 100 2.0 7.0 0.00 0.00 0.00 67 1014.7
20260502110002 65 122 2.0 5.0 0.00 0.00 0.00 67 1014.8
20260502105502 65 135 2.0 6.0 0.00 0.00 0.00 68 1015.0
20260502105003 64 119 2.0 6.0 0.00 0.00 0.00 71 1015.1
20260502104502 64 108 1.0 4.0 0.00 0.00 0.00 72 1015.1
20260502104002 63 113 1.0 4.0 0.00 0.00 0.00 73 1015.1
20260502103502 63 101 1.0 4.0 0.00 0.00 0.00 73 1015.2
20260502103002 63 113 1.0 6.0 0.00 0.00 0.00 75 1015.2
20260502102502 62 20 2.0 6.0 0.00 0.00 0.00 77 1015.4
20260502102003 62 332 1.0 5.0 0.00 0.00 0.00 76 1015.5
20260502101502 61 4 1.0 5.0 0.00 0.00 0.00 78 1015.5
20260502101002 61 8 1.0 5.0 0.00 0.00 0.00 78 1015.5
20260502100503 61 25 2.0 5.0 0.00 0.00 0.00 79 1015.6
20260502091502 55 95 1.0 3.0 0.00 0.00 0.00 92 1016.0
20260502091002 54 164 2.0 4.0 0.00 0.00 0.00 92 1016.1
20260502090502 54 175 1.0 4.0 0.00 0.00 0.00 92 1016.3
20260502071523 51 168 0.0 2.0 0.00 0.00 0.00 92 1017.1
20260502071002 50 180 1.0 2.0 0.00 0.00 0.00 92 1017.0
20260502070502 50 182 1.0 3.0 0.00 0.00 0.00 92 1017.0
20260502070004 50 174 1.0 4.0 0.00 0.00 0.00 92 1016.9
20260502065503 50 171 1.0 4.0 0.00 0.00 0.00 92 1016.9
20260502065003 50 188 0.0 3.0 0.00 0.00 0.00 92 1016.9
20260502064502 50 274 0.0 1.0 0.00 0.00 0.00 92 1016.9
20260502064002 50 0 0.0 1.0 0.00 0.00 0.00 92 1016.9
20260502063502 50 0 0.0 0.0 0.00 0.00 0.00 92 1016.9
20260502063023 50 0 0.0 1.0 0.00 0.00 0.00 92 1016.9
20260502062502 50 0 0.0 1.0 0.00 0.00 0.00 92 1017.0
20260502062002 50 0 0.0 0.0 0.00 0.00 0.00 92 1017.0
20260502061502 50 0 0.0 0.0 0.00 0.00 0.00 92 1017.0
20260502061002 50 260 0.0 1.0 0.00 0.00 0.00 92 1017.1
20260502060502 50 256 0.0 1.0 0.00 0.00 0.00 92 1017.0
20260502060002 50 244 0.0 1.0 0.00 0.00 0.00 92 1017.0
20260502055523 49 244 0.0 1.0 0.00 0.00 0.00 92 1016.9
20260502055002 49 0 0.0 1.0 0.00 0.00 0.00 92 1017.0
20260502054502 49 244 0.0 2.0 0.00 0.00 0.00 92 1017.0
20260502054003 49 247 0.0 2.0 0.00 0.00 0.00 92 1016.9
20260502053504 49 247 0.0 2.0 0.00 0.00 0.00 92 1017.0
20260502053004 49 183 0.0 1.0 0.00 0.00 0.00 92 1017.0
20260502052503 49 182 0.0 2.0 0.00 0.00 0.00 92 1017.0
20260502052024 49 236 0.0 2.0 0.00 0.00 0.00 92 1017.0
20260502051504 49 251 0.0 2.0 0.00 0.00 0.00 92 1017.1
20260502051002 49 203 0.0 2.0 0.00 0.00 0.00 92 1017.1
20260502050523 49 211 0.0 1.0 0.00 0.00 0.00 92 1017.1
20260502050023 49 0 0.0 0.0 0.00 0.00 0.00 92 1017.1
20260502045502 49 211 0.0 2.0 0.00 0.00 0.00 92 1017.1
20260502045002 49 211 0.0 2.0 0.00 0.00 0.00 92 1017.1
20260502044504 49 211 0.0 2.0 0.00 0.00 0.00 92 1017.0
20260502044002 49 0 0.0 1.0 0.00 0.00 0.00 92 1017.0
20260502043502 49 211 0.0 1.0 0.00 0.00 0.00 92 1017.0
20260502043023 49 211 0.0 1.0 0.00 0.00 0.00 92 1017.1
20260502042523 48 212 0.0 2.0 0.00 0.00 0.00 92 1017.1
20260502042002 48 212 0.0 2.0 0.00 0.00 0.00 92 1017.2
20260502041504 48 0 0.0 0.0 0.00 0.00 0.00 92 1017.2
20260502041002 48 217 0.0 1.0 0.00 0.00 0.00 92 1017.2
20260502040502 48 221 0.0 1.0 0.00 0.00 0.00 92 1017.2
20260502040002 48 243 0.0 2.0 0.00 0.00 0.00 91 1017.2
20260502035502 48 251 0.0 2.0 0.00 0.00 0.00 91 1017.2
20260502035004 48 251 0.0 1.0 0.00 0.00 0.00 92 1017.1
20260502034502 47 0 0.0 0.0 0.00 0.00 0.00 91 1017.1
20260502034002 47 251 0.0 1.0 0.00 0.00 0.00 92 1017.2
20260502033523 47 251 0.0 1.0 0.00 0.00 0.00 91 1017.2
20260502033023 47 251 0.0 1.0 0.00 0.00 0.00 91 1017.2
20260502032502 46 251 0.0 1.0 0.00 0.00 0.00 91 1017.2
20260502032002 46 0 0.0 0.0 0.00 0.00 0.00 91 1017.4
20260502031502 46 0 0.0 0.0 0.00 0.00 0.00 91 1017.5
20260502031023 46 0 0.0 0.0 0.00 0.00 0.00 91 1017.5
20260502030502 46 0 0.0 0.0 0.00 0.00 0.00 91 1017.5
20260502030002 46 0 0.0 0.0 0.00 0.00 0.00 91 1017.5
20260502025502 46 0 0.0 0.0 0.00 0.00 0.00 91 1017.6
20260502025002 46 0 0.0 0.0 0.00 0.00 0.00 90 1017.5
20260502024502 46 0 0.0 0.0 0.00 0.00 0.00 90 1017.6
20260502024004 46 0 0.0 0.0 0.00 0.00 0.00 90 1017.6
20260502023523 46 0 0.0 0.0 0.00 0.00 0.00 90 1017.6
20260502023003 46 0 0.0 0.0 0.00 0.00 0.00 91 1017.7
20260502022503 46 0 0.0 0.0 0.00 0.00 0.00 90 1017.8
20260502022004 47 0 0.0 0.0 0.00 0.00 0.00 90 1017.8
20260502021505 47 0 0.0 0.0 0.00 0.00 0.00 90 1017.9
20260502021004 47 0 0.0 0.0 0.00 0.00 0.00 90 1017.9
20260502020525 47 0 0.0 0.0 0.00 0.00 0.00 90 1017.9
20260502020004 48 0 0.0 0.0 0.00 0.00 0.00 90 1017.9
20260502015502 48 0 0.0 0.0 0.00 0.00 0.00 90 1017.9
20260502015002 48 0 0.0 0.0 0.00 0.00 0.00 90 1017.9
20260502014524 48 0 0.0 0.0 0.00 0.00 0.00 90 1017.9
20260502014002 49 0 0.0 0.0 0.00 0.00 0.00 90 1017.9
20260502013502 49 0 0.0 0.0 0.00 0.00 0.00 90 1017.9
20260502013003 49 0 0.0 0.0 0.00 0.00 0.00 90 1017.9
20260502012525 50 0 0.0 0.0 0.00 0.00 0.00 90 1017.9
20260502012002 50 0 0.0 0.0 0.00 0.00 0.00 90 1018.0
20260502011503 50 0 0.0 0.0 0.00 0.00 0.00 91 1018.1
20260502011003 50 251 0.0 1.0 0.00 0.00 0.00 91 1018.1
20260502010503 50 232 0.0 2.0 0.00 0.00 0.00 91 1018.2
20260502010003 51 225 0.0 2.0 0.00 0.00 0.00 91 1018.1
20260502005502 51 227 1.0 5.0 0.00 0.00 0.00 91 1018.2
20260502005003 51 226 1.0 5.0 0.00 0.00 0.00 91 1018.2
20260502004503 51 225 1.0 5.0 0.00 0.00 0.00 91 1018.3
20260502004023 51 233 0.0 3.0 0.00 0.00 0.00 91 1018.3
20260502003502 51 226 1.0 4.0 0.00 0.00 0.00 91 1018.3
20260502003003 51 230 1.0 4.0 0.00 0.00 0.00 91 1018.3
20260502002504 51 243 0.0 3.0 0.00 0.00 0.00 91 1018.4
20260502002024 51 219 1.0 3.0 0.00 0.00 0.00 90 1018.4
20260502001504 51 202 0.0 3.0 0.00 0.00 0.00 90 1018.5
20260502001003 51 205 1.0 5.0 0.00 0.00 0.00 90 1018.5
20260502000524 51 204 1.0 5.0 0.00 0.00 0.00 90 1018.4
20260502000003 50 216 1.0 8.0 0.00 0.00 0.00 90 1018.6
20260501235524 50 216 2.0 8.0 0.00 0.00 0.00 90 1018.6
20260501235003 50 209 1.0 4.0 0.00 0.00 0.00 90 1018.5
20260501234503 50 204 0.0 1.0 0.00 0.00 0.00 90 1018.6
20260501234025 50 184 0.0 3.0 0.00 0.00 0.00 90 1018.6
20260501233503 49 182 0.0 3.0 0.00 0.00 0.00 90 1018.6
20260501233003 49 182 0.0 1.0 0.00 0.00 0.00 89 1018.7
20260501232504 49 182 0.0 2.0 0.00 0.00 0.00 89 1018.8
20260501232005 49 190 0.0 4.0 0.00 0.00 0.00 89 1018.8
20260501231504 49 197 0.0 4.0 0.00 0.00 0.00 89 1018.9
20260501231004 49 223 0.0 2.0 0.00 0.00 0.00 89 1018.8
20260501230504 50 223 0.0 1.0 0.00 0.00 0.00 89 1018.8
20260501230005 50 223 0.0 1.0 0.00 0.00 0.00 89 1018.9
20260501225503 50 214 0.0 3.0 0.00 0.00 0.00 89 1018.9
20260501225003 50 201 0.0 3.0 0.00 0.00 0.00 89 1018.8
20260501224503 50 193 0.0 4.0 0.00 0.00 0.00 89 1018.9
20260501224003 50 199 0.0 4.0 0.00 0.00 0.00 89 1018.8
20260501223503 49 196 0.0 2.0 0.00 0.00 0.00 88 1018.8
20260501223003 49 196 0.0 2.0 0.00 0.00 0.00 88 1018.8
20260501222503 49 196 1.0 2.0 0.00 0.00 0.00 88 1018.7
20260501222003 49 196 0.0 2.0 0.00 0.00 0.00 88 1018.9
20260501221503 49 196 0.0 2.0 0.00 0.00 0.00 88 1018.8
20260501221003 50 196 0.0 2.0 0.00 0.00 0.00 88 1018.9
20260501220503 50 196 0.0 2.0 0.00 0.00 0.00 88 1018.9
20260501215503 50 0 0.0 0.0 0.00 0.00 0.00 87 1018.9
20260501215025 50 0 0.0 0.0 0.00 0.00 0.00 87 1018.9
20260501214504 50 196 0.0 2.0 0.00 0.00 0.00 87 1019.0
20260501214024 50 196 0.0 2.0 0.00 0.00 0.00 87 1018.9
20260501213503 50 196 0.0 1.0 0.00 0.00 0.00 87 1018.9
20260501213003 50 196 0.0 1.0 0.00 0.00 0.00 86 1018.9
20260501212524 50 196 0.0 1.0 0.00 0.00 0.00 86 1018.9
20260501212003 51 196 0.0 1.0 0.00 0.00 0.00 86 1018.9
20260501211503 51 190 0.0 2.0 0.00 0.00 0.00 86 1018.8
20260501211024 51 194 0.0 2.0 0.00 0.00 0.00 86 1018.7
20260501210503 51 217 0.0 2.0 0.00 0.00 0.00 86 1018.7
20260501210024 52 222 0.0 2.0 0.00 0.00 0.00 86 1018.7
20260501205503 52 226 0.0 2.0 0.00 0.00 0.00 86 1018.6
20260501205003 52 226 0.0 2.0 0.00 0.00 0.00 85 1018.6
20260501204503 52 204 0.0 2.0 0.00 0.00 0.00 85 1018.7
20260501204003 52 211 0.0 3.0 0.00 0.00 0.00 85 1018.7
20260501203503 52 208 0.0 3.0 0.00 0.00 0.00 85 1018.7
20260501203003 53 187 0.0 4.0 0.00 0.00 0.00 84 1018.6
20260501202504 53 193 1.0 4.0 0.00 0.00 0.00 84 1018.7
20260501202003 53 195 1.0 3.0 0.00 0.00 0.00 83 1018.6
20260501201525 54 198 1.0 4.0 0.00 0.00 0.00 83 1018.6
20260501201004 54 193 2.0 5.0 0.00 0.00 0.00 82 1018.5
20260501200505 54 188 2.0 5.0 0.00 0.00 0.00 82 1018.5
20260501200025 54 187 2.0 5.0 0.00 0.00 0.00 81 1018.5
20260501195504 55 185 1.0 4.0 0.00 0.00 0.00 80 1018.5
20260501195004 55 183 1.0 2.0 0.00 0.00 0.00 80 1018.4
20260501194505 56 174 1.0 3.0 0.00 0.00 0.00 79 1018.4
20260501194003 56 169 1.0 4.0 0.00 0.00 0.00 79 1018.3
20260501193503 56 168 2.0 4.0 0.00 0.00 0.00 78 1018.2
20260501193003 57 166 2.0 4.0 0.00 0.00 0.00 77 1018.2
20260501192524 57 173 2.0 4.0 0.00 0.00 0.00 76 1018.2
20260501192001 57 194 2.0 6.0 0.00 0.00 0.00 76 1018.1
20260501191501 58 195 1.0 6.0 0.00 0.00 0.00 75 1018.1
20260501191001 58 188 2.0 6.0 0.00 0.00 0.00 74 1018.1
20260501190501 58 187 2.0 4.0 0.00 0.00 0.00 74 1018.1
20260501190001 59 184 2.0 6.0 0.00 0.00 0.00 74 1018.1
20260501185522 59 176 3.0 6.0 0.00 0.00 0.00 73 1018.1
20260501185001 59 180 3.0 6.0 0.00 0.00 0.00 72 1018.0
20260501184522 60 187 2.0 6.0 0.00 0.00 0.00 72 1018.0
20260501184001 60 188 1.0 4.0 0.00 0.00 0.00 71 1018.0
20260501183501 60 197 1.0 3.0 0.00 0.00 0.00 70 1017.9
20260501183001 61 202 1.0 5.0 0.00 0.00 0.00 70 1017.9
20260501182501 61 201 1.0 5.0 0.00 0.00 0.00 69 1017.9
20260501182022 61 201 1.0 3.0 0.00 0.00 0.00 69 1017.8
20260501181501 61 201 2.0 5.0 0.00 0.00 0.00 68 1017.8
20260501181001 62 201 2.0 5.0 0.00 0.00 0.00 67 1017.8
20260501180501 62 198 2.0 6.0 0.00 0.00 0.00 67 1017.8
20260501180001 62 199 2.0 6.0 0.00 0.00 0.00 69 1017.8
20260501175501 62 195 2.0 5.0 0.00 0.00 0.00 70 1017.8
20260501175001 62 187 2.0 5.0 0.00 0.00 0.00 70 1017.8
20260501174522 62 189 2.0 5.0 0.00 0.00 0.00 69 1017.8
20260501174001 62 191 2.0 8.0 0.00 0.00 0.00 69 1017.8
20260501173501 62 194 3.0 8.0 0.00 0.00 0.00 69 1017.8
20260501173001 63 204 2.0 5.0 0.00 0.00 0.00 68 1017.9
20260501172501 62 196 3.0 7.0 0.00 0.00 0.00 67 1017.9
20260501172001 62 186 4.0 10.0 0.00 0.00 0.00 66 1018.0
20260501171502 62 193 4.0 10.0 0.00 0.00 0.00 67 1018.0
20260501171023 62 196 4.0 7.0 0.00 0.00 0.00 67 1017.9
20260501170502 62 184 5.0 12.0 0.00 0.00 0.00 69 1018.1
20260501170003 62 195 5.0 12.0 0.00 0.00 0.00 70 1018.1
20260501165502 62 217 3.0 8.0 0.00 0.00 0.00 71 1018.1
20260501165002 62 198 4.0 8.0 0.00 0.00 0.00 70 1018.2
20260501164504 62 184 6.0 12.0 0.00 0.00 0.00 70 1018.1
20260501164001 63 184 6.0 13.0 0.00 0.00 0.00 70 1018.2
20260501163501 64 185 4.0 13.0 0.00 0.00 0.00 68 1018.2
20260501163001 64 180 5.0 9.0 0.00 0.00 0.00 67 1018.2
20260501162501 64 181 6.0 13.0 0.00 0.00 0.00 69 1018.2
20260501162001 64 184 6.0 13.0 0.00 0.00 0.00 69 1018.2
20260501161501 64 180 6.0 11.0 0.00 0.00 0.00 69 1018.2
20260501161001 65 180 7.0 11.0 0.00 0.00 0.00 69 1018.2
20260501160501 64 184 6.0 11.0 0.00 0.00 0.00 71 1018.2
20260501160001 64 186 6.0 12.0 0.00 0.00 0.00 68 1018.3
20260501155501 64 188 6.0 14.0 0.00 0.00 0.00 70 1018.3
20260501155001 64 185 6.0 14.0 0.00 0.00 0.00 68 1018.3
20260501154501 64 183 6.0 14.0 0.00 0.00 0.00 68 1018.3
20260501154001 64 183 6.0 14.0 0.00 0.00 0.00 68 1018.3
20260501153522 64 190 4.0 13.0 0.00 0.00 0.00 68 1018.4
20260501153001 64 193 5.0 11.0 0.00 0.00 0.00 67 1018.4
20260501152522 64 184 6.0 13.0 0.00 0.00 0.00 68 1018.5
20260501152001 65 192 5.0 13.0 0.00 0.00 0.00 68 1018.5
20260501151522 65 210 4.0 10.0 0.00 0.00 0.00 67 1018.5
20260501151001 66 196 5.0 12.0 0.00 0.00 0.00 68 1018.6
20260501150522 66 186 7.0 13.0 0.00 0.00 0.00 68 1018.6
20260501150001 66 189 6.0 13.0 0.00 0.00 0.00 69 1018.6
20260501145503 65 191 6.0 14.0 0.00 0.00 0.00 68 1018.7